Location: Eaton Estates
(41.3089°N, 82.0057°W)
Time: 13:09:37
(UTC+00:00)

CZ-2D R/B - Pass Details

Date: 17 June 2021
Orbit: 791 x 845 km, 98.7° (Epoch: 26 July)

Event Time Altitude Azimuth Distance (km) Brightness Sun altitude
Rises 07:42:13 0° 6° (N) 3,303 6.4 -18.3°
Reaches altitude 10° 07:44:39 10° 0° (N) 2,367 5.4 -18.1°
Maximum altitude 07:49:32 43° 291° (WNW) 1,110 2.7 -17.6°
Enters shadow 07:51:52 27° 238° (WSW) 1,490 3.0 -17.3°
